Terminal Aerodrome Forecast
Issued by NWS

Home | Current Version | Previous Version | Text Only | Print | Product List | Glossary On
Versions: 1 2 3 4 5 6 7 8 9 10 11 12 13 14 15 16 17 18 19 20 21 22 23 24 25 26 27 28 29 30 31 32 33 34 35 36 37 38 39 40 41 42 43 44 45 46 47 48 49 50
000
FTUS41 KCTP 050529
TAFJST
TAF
KJST 050529Z 0506/0606 30010KT 1SM -SN BR OVC006
      TEMPO 0506/0510 1/2SM SN FG OVC002
     FM051200 31012G18KT 1SM -SN VV004
     FM051500 31008KT P6SM OVC025=

USA.gov is the U.S. government's official web portal to all federal, state and local government web resources and services.